Hourly Data Report for October 17, 2013

All times are specified in Local Standard Time (LST). Add 1 hour to adjust for Daylight Saving Time where and when it is observed.

PETAWAWA AWOS 2
ONTARIO

45°57'00.000" N
77°19'00.000" W
130.10 m
6106396
71625
YWA

Download Data

Hourly Data (October 2013)
Hourly Data Report for October 17, 2013
Temp Definition
°C
Dew Point Temp Definition
°C
Rel Hum Definition
%
Wind Dir Definition
10's deg

Wind Spd Definition
km/h
Visibility Definition
km
Stn Press Definition
kPa
Hmdx Definition


Wind Chill Definition


Weather Definition


TIME
00:00 10.6 8.8 89 18 6 15.0 99.04      
01:00 10.0 8.8 92 18 4 15.0 99.05      
02:00 10.3 9.0 92   0 15.0 99.06      
03:00 9.3 9.2 99   0 15.0 99.08      
04:00 10.6 9.8 95 25 4 15.0 99.12      
05:00 12.1 9.3 83 25 6 15.0 99.17      
06:00 11.7 9.2 85 22 9 15.0 99.21      
07:00 11.8 9.3 85 22 7 15.0 99.24      
08:00 12.4 8.8 79 25 6 15.0 99.28      
09:00 12.6 8.9 78 24 9 15.0 99.31      
10:00 15.0 7.4 60 24 13 15.0 99.29      
11:00 15.5 5.9 53 26 11 15.0 99.27      
12:00 16.3 6.8 53 20 13 15.0 99.24      
13:00 15.0 7.9 62 33 9 15.0 99.22      
14:00 14.8 7.7 62 28 9 15.0 99.23      
15:00 14.7 8.5 66 33 13 15.0 99.17      
16:00 14.0 9.4 74 33 11 15.0 99.16      
17:00 12.7 8.9 78 32 9 15.0 99.13      
18:00 11.2 8.2 82 27 6 15.0 99.15      
19:00 11.8 8.7 81 30 6 15.0 99.06      
20:00 11.6 8.8 83 20 4 15.0 99.12      
21:00 10.6 8.9 89   0 15.0 99.11     Rain
22:00 9.9 9.5 97 24 4 11.3 99.02     Rain
23:00 9.7 9.6 99   0 8.0 98.97     Rain

Notes on Data Quality.

Legend

  • E = Estimated
  • M = Missing
  • NA = Not Available
  • ‡ = Partner data that is not subject to review by the National Climate Archives
Date modified: